Home   Weather   Qyzylorda   Past weeks

Flag for Kazakhstan Past Weather in Qyzylorda, Kazakhstan — Yesterday and Last 2 Weeks

Now
32 °F

Sunny.


Feels Like: 26 °F
Forecast: 11 / 30 °F
Wind: 6 mph from Northeast

Location: Kzyl-Orda

Current Time: Feb 21, 2017 at 1:55:23 pm

Latest Report: Feb 21, 2017 at 1:00 pm


Visibility: 10 mi

Pressure: 30.39 "Hg

Humidity: 60%

Dew Point: 19 °F

Location of QyzylordaLocation

Past Weather in Qyzylorda — Graph

°F

Qyzylorda Temperature Yesterday

Maximum temperature yesterday: 37 °F (at 4:30 pm)
Minimum temperature yesterday: 21 °F (at 11:00 pm)
Average temperature yesterday: 30 °F

High & Low Weather Summary for the Past Weeks

 TemperatureHumidityPressure
High41 °F (Feb 16, 2:30 pm)100% (Feb 16, 1:00 am)30.72 "Hg (Feb 16, 1:00 am)
Low-17 °F (Feb 12, 7:30 am)52% (Feb 13, 4:00 pm)29.80 "Hg (Feb 16, 3:30 pm)
Average12 °F79%30.36 "Hg
* Reported Feb 6 12:00 pm — Feb 21 12:30 pm, Qyzylorda, Weather by CustomWeather, © 2017

Note: Actual official high and low records may vary slightly from our data, if they occured in-between our weather recording intervals... More about our weather records

Advertising

Qyzylorda Weather History for the Previous 24 Hours

Scroll right to see more
 ConditionsComfort  
Time TempWeatherWind HumidityBarometerVisibility
12:30 pm
Tue, Feb 21
32 °FPassing clouds.6 mph60%30.39 "HgN/A
12:00 pm32 °FSunny.8 mph69%30.39 "Hg10 mi
11:30 am32 °FSunny.8 mph69%30.39 "Hg10 mi
11:00 am30 °FSunny.3 mph86%30.39 "Hg10 mi
10:30 am27 °FSunny.3 mph100%30.42 "Hg10 mi
10:00 am21 °FSunny.1 mph93%30.42 "Hg10 mi
9:30 am19 °FSunny.3 mph93%30.42 "Hg10 mi
9:00 am14 °FIce fog.3 mph92%30.42 "Hg3 mi
8:30 am14 °FClear.1 mph92%30.42 "Hg10 mi
8:00 am16 °FClear.No wind93%30.42 "Hg10 mi
7:30 am14 °FClear.1 mph100%30.42 "Hg10 mi
7:00 am14 °FClear.1 mph100%30.42 "Hg10 mi
6:30 am14 °FClear.1 mph100%30.42 "Hg10 mi
6:00 am14 °FClear.3 mph100%30.42 "Hg10 mi
5:30 am16 °FClear.3 mph93%30.42 "Hg3 mi
5:00 am16 °FClear.6 mph100%30.45 "Hg3 mi
4:30 am16 °FIce fog.3 mph100%30.45 "Hg3 mi
4:00 am18 °FIce fog.3 mph93%30.45 "Hg3 mi
3:30 am18 °FClear.3 mph93%30.45 "Hg10 mi
3:00 am18 °FClear.3 mph93%30.48 "Hg10 mi
2:30 am18 °FClear.6 mph100%30.48 "Hg10 mi
2:00 am19 °FClear.6 mph93%30.48 "Hg10 mi
1:30 am19 °FClear.6 mph100%30.48 "Hg10 mi
1:00 am21 °FClear.6 mph100%30.51 "Hg10 mi
12:30 am23 °FClear.6 mph93%30.51 "Hg10 mi
12:00 am25 °FClear.6 mph86%30.51 "Hg10 mi
11:30 pm
Mon, Feb 20
25 °FClear.8 mph86%30.51 "Hg10 mi
11:00 pm21 °FClear.6 mph93%30.54 "Hg10 mi
10:30 pm23 °FClear.6 mph86%30.54 "Hg10 mi
10:00 pm23 °FClear.6 mph86%30.54 "Hg10 mi
9:30 pm25 °FClear.6 mph80%30.54 "Hg10 mi
9:00 pm27 °FClear.6 mph74%30.54 "Hg10 mi
8:30 pm28 °FClear.3 mph74%30.54 "Hg10 mi
8:00 pm30 °FSunny.1 mph69%30.54 "Hg10 mi
7:30 pm32 °FSunny.3 mph64%30.54 "Hg10 mi
7:00 pm36 °FSunny.6 mph56%30.54 "Hg10 mi
6:30 pm36 °FSunny.6 mph56%30.54 "Hg10 mi
6:00 pm37 °FSunny.8 mph56%30.54 "Hg10 mi
5:30 pm37 °FSunny.10 mph56%30.54 "Hg10 mi
5:00 pm37 °FSunny.10 mph56%30.57 "Hg10 mi
4:30 pm37 °FSunny.10 mph60%30.57 "Hg10 mi
4:00 pm36 °FSunny.10 mph65%30.57 "Hg10 mi
3:30 pm36 °FSunny.10 mph65%30.57 "Hg10 mi
3:00 pm36 °FSunny.10 mph60%30.57 "Hg10 mi
2:30 pm36 °FSunny.10 mph65%30.57 "Hg10 mi
2:00 pm34 °FSunny.13 mph70%30.60 "Hg10 mi
1:30 pm34 °FSunny.10 mph65%30.60 "Hg10 mi
1:00 pm34 °FSunny.13 mph65%30.60 "Hg10 mi
Weather by CustomWeather, © 2017

See weather overviewHow to use our weather pages